Radiation Dose at Monitoring Post of Fukushima Daini Nuclear Power Station
Date,Time,MP-1(microSv/h),MP-2(microSv/h),MP-3(microSv/h),MP-4(microSv/h),MP-5(microSv/h),MP-6(microSv/h),MP-7(microSv/h),Wind Direction,Wind Velocity(m/s),Rain
2016/06/20,00:00,0.422,0.248,0.432,0.397,0.377,0.202,0.175,south,11.0,Yes
2016/06/20,00:10,0.420,0.247,0.437,0.395,0.373,0.203,0.175,south-southwest,12.5,No
2016/06/20,00:20,0.420,0.249,0.434,0.398,0.376,0.202,0.175,south-southwest,11.1,No
2016/06/20,00:30,0.422,0.247,0.432,0.398,0.376,0.202,0.174,south-southwest,10.3,No
2016/06/20,00:40,0.418,0.248,0.439,0.395,0.373,0.203,0.175,south-southwest,10.5,No
2016/06/20,00:50,0.421,0.247,0.435,0.399,0.377,0.201,0.175,south,11.2,No
2016/06/20,01:00,0.422,0.247,0.432,0.395,0.375,0.202,0.175,south-southwest,10.4,Yes
2016/06/20,01:10,0.419,0.249,0.438,0.398,0.377,0.202,0.176,south-southwest,8.4,Yes
2016/06/20,01:20,0.421,0.247,0.433,0.398,0.377,0.204,0.175,south-southwest,8.0,No
2016/06/20,01:30,0.420,0.247,0.436,0.395,0.374,0.203,0.176,south,8.5,Yes
2016/06/20,01:40,0.419,0.248,0.437,0.399,0.377,0.202,0.175,south-southwest,8.0,Yes
2016/06/20,01:50,0.420,0.246,0.433,0.395,0.374,0.203,0.175,south-southwest,8.3,No
2016/06/20,02:00,0.418,0.250,0.439,0.398,0.376,0.201,0.175,south-southwest,8.4,Yes
2016/06/20,02:10,0.421,0.247,0.436,0.398,0.377,0.202,0.175,south-southwest,9.1,Yes
2016/06/20,02:20,0.421,0.247,0.435,0.395,0.372,0.203,0.175,south-southwest,9.8,Yes
2016/06/20,02:30,0.418,0.249,0.438,0.399,0.377,0.203,0.175,south-southwest,8.5,Yes
2016/06/20,02:40,0.422,0.247,0.434,0.397,0.376,0.203,0.176,south-southwest,9.3,Yes
2016/06/20,02:50,0.420,0.249,0.436,0.399,0.373,0.203,0.177,south-southwest,9.2,Yes
2016/06/20,03:00,0.423,0.249,0.437,0.399,0.377,0.203,0.175,south-southwest,6.7,Yes
2016/06/20,03:10,0.423,0.249,0.434,0.396,0.374,0.204,0.177,south-southwest,7.6,Yes
2016/06/20,03:20,0.418,0.250,0.437,0.399,0.377,0.204,0.177,south-southwest,8.5,Yes
2016/06/20,03:30,0.422,0.249,0.432,0.395,0.371,0.205,0.176,south-southwest,7.0,Yes
2016/06/20,03:40,0.418,0.250,0.433,0.396,0.375,0.205,0.178,southwest,7.4,Yes
2016/06/20,03:50,0.419,0.250,0.429,0.395,0.374,0.206,0.177,southwest,6.2,Yes
2016/06/20,04:00,0.418,0.249,0.431,0.393,0.373,0.206,0.178,south-southwest,6.6,Yes
2016/06/20,04:10,0.415,0.248,0.431,0.395,0.375,0.204,0.175,south-southwest,9.3,Yes
2016/06/20,04:20,0.418,0.248,0.426,0.390,0.372,0.205,0.177,south-southwest,9.1,Yes
2016/06/20,04:30,0.412,0.249,0.428,0.393,0.375,0.204,0.176,south-southwest,8.6,Yes
2016/06/20,04:40,0.417,0.246,0.426,0.391,0.371,0.204,0.174,south,8.1,Yes
2016/06/20,04:50,0.414,0.248,0.428,0.392,0.373,0.201,0.174,south-southwest,7.0,No
2016/06/20,05:00,0.413,0.244,0.425,0.389,0.369,0.202,0.172,south-southwest,5.2,Yes
2016/06/20,05:10,0.414,0.247,0.424,0.389,0.372,0.201,0.173,south-southwest,2.0,No
2016/06/20,05:20,0.410,0.244,0.423,0.388,0.369,0.200,0.171,northwest,3.8,Yes
2016/06/20,05:30,0.413,0.244,0.419,0.385,0.368,0.201,0.173,east,3.5,Yes
2016/06/20,05:40,0.410,0.246,0.422,0.386,0.371,0.201,0.172,east-southeast,2.6,Yes
2016/06/20,05:50,0.413,0.244,0.419,0.384,0.370,0.201,0.173,south,3.6,Yes
2016/06/20,06:00,0.409,0.245,0.424,0.387,0.373,0.200,0.172,southwest,2.9,No
2016/06/20,06:10,0.412,0.243,0.419,0.385,0.367,0.201,0.172,southwest,2.5,No
2016/06/20,06:20,0.412,0.245,0.419,0.385,0.371,0.199,0.171,southwest,1.8,No
2016/06/20,06:30,0.409,0.242,0.419,0.386,0.370,0.197,0.170,south-southwest,1.8,No
2016/06/20,06:40,0.412,0.242,0.420,0.383,0.367,0.198,0.170,southwest,1.4,No
2016/06/20,06:50,0.408,0.243,0.420,0.387,0.371,0.197,0.171,south,1.5,No
2016/06/20,07:00,0.411,0.241,0.420,0.384,0.368,0.197,0.170,south,0.8,No
2016/06/20,07:10,0.410,0.241,0.417,0.382,0.366,0.197,0.167,southeast,0.9,No
2016/06/20,07:20,0.407,0.242,0.421,0.386,0.370,0.196,0.168,east-southeast,1.8,No
2016/06/20,07:30,0.410,0.241,0.419,0.383,0.369,0.198,0.169,south-southeast,2.3,No
2016/06/20,07:40,0.408,0.240,0.414,0.379,0.365,0.196,0.168,south-southeast,3.1,No
2016/06/20,07:50,0.407,0.238,0.417,0.385,0.369,0.196,0.168,south,2.6,No
2016/06/20,08:00,0.409,0.238,0.421,0.384,0.370,0.197,0.166,south-southwest,2.8,No
2016/06/20,08:10,0.409,0.239,0.418,0.384,0.366,0.196,0.167,south-southwest,2.6,No
2016/06/20,08:20,0.405,0.239,0.416,0.381,0.366,0.195,0.167,south,1.4,No
2016/06/20,08:30,0.408,0.239,0.415,0.379,0.364,0.196,0.168,south-southeast,2.2,No
2016/06/20,08:40,0.409,0.239,0.416,0.379,0.365,0.197,0.168,south-southeast,1.8,No
2016/06/20,08:50,0.407,0.242,0.415,0.379,0.372,0.197,0.167,south-southeast,1.9,No
2016/06/20,09:00,0.407,0.242,0.417,0.381,0.371,0.199,0.168,south-southeast,2.6,No
2016/06/20,09:10,0.405,0.241,0.418,0.379,0.369,0.197,0.167,southeast,2.3,No
2016/06/20,09:20,0.411,0.240,0.422,0.382,0.367,0.196,0.166,southeast,3.5,No
2016/06/20,09:30,0.410,0.241,0.420,0.382,0.367,0.196,0.169,east-southeast,2.8,No
2016/06/20,09:40,0.409,0.239,0.420,0.381,0.364,0.197,0.167,east-southeast,2.8,No
2016/06/20,09:50,0.408,0.240,0.418,0.382,0.368,0.198,0.169,east,2.2,No
2016/06/20,10:00,0.413,0.243,0.421,0.384,0.373,0.197,0.169,east-northeast,1.8,No
2016/06/20,10:10,0.412,0.243,0.425,0.383,0.372,0.196,0.170,east-northeast,2.4,No
2016/06/20,10:20,0.408,0.242,0.422,0.384,0.370,0.199,0.170,east-northeast,2.7,No
2016/06/20,10:30,0.407,0.240,0.419,0.385,0.369,0.198,0.169,east-northeast,2.5,No
2016/06/20,10:40,0.413,0.241,0.417,0.386,0.367,0.198,0.168,east-northeast,2.5,No
2016/06/20,10:50,0.413,0.240,0.417,0.385,0.367,0.197,0.169,northeast,2.1,No
2016/06/20,11:00,0.411,0.241,0.417,0.391,0.368,0.198,0.169,north-northeast,2.4,No
2016/06/20,11:10,0.409,0.241,0.419,0.389,0.367,0.197,0.169,north-northeast,3.1,No
2016/06/20,11:20,0.405,0.241,0.419,0.388,0.366,0.198,0.169,north-northeast,3.9,No
2016/06/20,11:30,0.411,0.244,0.418,0.387,0.368,0.197,0.169,north-northeast,3.9,No
2016/06/20,11:40,0.415,0.243,0.417,0.385,0.369,0.198,0.168,north-northeast,3.6,No
2016/06/20,11:50,0.412,0.243,0.421,0.387,0.370,0.198,0.169,northeast,4.8,No
2016/06/20,12:00,0.411,0.243,0.420,0.384,0.368,0.198,0.168,northeast,4.5,No
2016/06/20,12:10,0.409,0.242,0.423,0.386,0.369,0.199,0.168,east-northeast,3.9,No
2016/06/20,12:20,0.409,0.241,0.422,0.386,0.369,0.199,0.170,east-southeast,3.3,No
2016/06/20,12:30,0.413,0.241,0.422,0.385,0.367,0.200,0.169,southeast,2.7,No
2016/06/20,12:40,0.416,0.242,0.419,0.385,0.370,0.199,0.168,south-southeast,3.0,No
2016/06/20,12:50,0.415,0.242,0.422,0.385,0.370,0.199,0.169,southeast,2.2,No
2016/06/20,13:00,0.412,0.242,0.422,0.385,0.369,0.200,0.170,east-southeast,1.9,No
2016/06/20,13:10,0.411,0.242,0.423,0.386,0.371,0.199,0.170,southeast,2.0,No
2016/06/20,13:20,0.410,0.242,0.422,0.386,0.370,0.200,0.169,south-southeast,2.0,No
2016/06/20,13:30,0.410,0.242,0.422,0.385,0.370,0.200,0.169,south-southeast,2.5,No
2016/06/20,13:40,0.410,0.244,0.422,0.386,0.372,0.199,0.170,southeast,1.5,No
2016/06/20,13:50,0.410,0.242,0.423,0.386,0.371,0.199,0.170,south-southeast,2.8,No
2016/06/20,14:00,0.410,0.242,0.421,0.386,0.371,0.199,0.171,south-southeast,1.4,No
2016/06/20,14:10,0.410,0.242,0.422,0.386,0.371,0.199,0.171,southeast,1.4,No
2016/06/20,14:20,0.409,0.242,0.422,0.385,0.371,0.199,0.170,east,1.0,No
2016/06/20,14:30,0.416,0.241,0.423,0.385,0.372,0.198,0.170,east-southeast,1.4,No
2016/06/20,14:40,0.417,0.244,0.422,0.387,0.372,0.200,0.170,east,1.2,No
2016/06/20,14:50,0.414,0.246,0.424,0.392,0.369,0.201,0.170,east-northeast,1.6,No
2016/06/20,15:00,0.411,0.244,0.426,0.392,0.373,0.200,0.172,east-northeast,1.3,No
2016/06/20,15:10,0.416,0.243,0.425,0.389,0.376,0.199,0.170,east-southeast,0.7,No
2016/06/20,15:20,0.419,0.244,0.423,0.387,0.374,0.199,0.170,east-northeast,1.0,No
2016/06/20,15:30,0.412,0.245,0.425,0.392,0.369,0.200,0.172,north-northeast,1.2,No
2016/06/20,15:40,0.414,0.243,0.426,0.390,0.375,0.199,0.171,northwest,0.7,No
2016/06/20,15:50,0.418,0.242,0.422,0.387,0.376,0.200,0.169,southeast,0.6,No
2016/06/20,16:00,0.414,0.245,0.420,0.389,0.374,0.199,0.172,southeast,1.0,No
2016/06/20,16:10,0.414,0.244,0.426,0.392,0.370,0.200,0.172,east-southeast,2.1,No
2016/06/20,16:20,0.416,0.242,0.428,0.389,0.368,0.199,0.170,east-southeast,0.6,No
2016/06/20,16:30,0.414,0.244,0.425,0.388,0.375,0.199,0.171,-,CALM,No
2016/06/20,16:40,0.411,0.246,0.421,0.390,0.375,0.200,0.173,south,0.7,No
2016/06/20,16:50,0.415,0.242,0.427,0.391,0.372,0.200,0.170,south-southwest,1.3,No
2016/06/20,17:00,0.416,0.244,0.429,0.388,0.370,0.200,0.171,southwest,2.1,No
2016/06/20,17:10,0.412,0.245,0.423,0.386,0.368,0.198,0.171,south,1.6,No
2016/06/20,17:20,0.411,0.244,0.422,0.391,0.372,0.199,0.172,south,3.4,No
2016/06/20,17:30,0.418,0.243,0.427,0.391,0.376,0.200,0.170,south,2.4,No
2016/06/20,17:40,0.414,0.245,0.427,0.387,0.372,0.198,0.171,south-southwest,3.6,No
2016/06/20,17:50,0.412,0.243,0.422,0.390,0.370,0.199,0.171,south-southwest,1.3,No
2016/06/20,18:00,0.416,0.243,0.428,0.390,0.376,0.200,0.171,south-southwest,2.9,No
2016/06/20,18:10,0.417,0.245,0.428,0.387,0.374,0.200,0.172,-,CALM,No
2016/06/20,18:20,0.412,0.244,0.423,0.391,0.371,0.199,0.172,northeast,0.7,No
2016/06/20,18:30,0.416,0.245,0.425,0.392,0.373,0.200,0.171,northwest,1.2,No
2016/06/20,18:40,0.415,0.245,0.427,0.387,0.375,0.199,0.172,north-northwest,1.9,No
2016/06/20,18:50,0.413,0.243,0.425,0.390,0.372,0.200,0.172,north,4.5,No
2016/06/20,19:00,0.416,0.245,0.426,0.391,0.373,0.200,0.172,north,3.6,No
2016/06/20,19:10,0.414,0.244,0.426,0.386,0.375,0.197,0.172,north-northwest,3.4,No
2016/06/20,19:20,0.414,0.244,0.423,0.390,0.371,0.201,0.171,north,4.2,No
2016/06/20,19:30,0.418,0.247,0.427,0.390,0.374,0.200,0.173,north,4.8,No
2016/06/20,19:40,0.412,0.244,0.425,0.389,0.370,0.200,0.172,north,4.8,No
2016/06/20,19:50,0.416,0.245,0.426,0.393,0.376,0.201,0.171,north,3.6,No
2016/06/20,20:00,0.417,0.245,0.427,0.387,0.374,0.200,0.172,north,6.0,No
2016/06/20,20:10,0.412,0.243,0.425,0.391,0.370,0.200,0.171,north,4.6,No
2016/06/20,20:20,0.417,0.246,0.427,0.390,0.375,0.199,0.173,north,3.5,No
2016/06/20,20:30,0.414,0.244,0.425,0.388,0.372,0.201,0.171,north,3.1,No
2016/06/20,20:40,0.416,0.246,0.424,0.391,0.374,0.201,0.172,north-northwest,1.8,No
2016/06/20,20:50,0.417,0.244,0.427,0.387,0.372,0.201,0.172,north-northwest,2.2,No
2016/06/20,21:00,0.414,0.244,0.424,0.391,0.371,0.199,0.171,northwest,2.8,No
2016/06/20,21:10,0.416,0.246,0.426,0.389,0.374,0.199,0.172,north-northwest,1.3,No
2016/06/20,21:20,0.413,0.244,0.427,0.389,0.370,0.201,0.171,-,CALM,No
2016/06/20,21:30,0.414,0.245,0.425,0.391,0.373,0.200,0.172,north-northeast,0.6,No
2016/06/20,21:40,0.414,0.243,0.429,0.389,0.372,0.199,0.171,east-northeast,1.4,No
2016/06/20,21:50,0.413,0.245,0.423,0.392,0.373,0.200,0.171,northeast,1.4,No
2016/06/20,22:00,0.417,0.244,0.427,0.390,0.375,0.199,0.172,north,1.4,No
2016/06/20,22:10,0.411,0.245,0.425,0.392,0.372,0.201,0.172,north-northwest,2.4,No
2016/06/20,22:20,0.416,0.244,0.426,0.389,0.374,0.199,0.172,north-northeast,1.1,No
2016/06/20,22:30,0.414,0.244,0.427,0.389,0.371,0.200,0.171,north-northeast,0.9,No
2016/06/20,22:40,0.414,0.245,0.424,0.391,0.374,0.199,0.172,north,0.8,No
2016/06/20,22:50,0.416,0.243,0.428,0.387,0.371,0.200,0.172,-,CALM,No
2016/06/20,23:00,0.414,0.245,0.426,0.391,0.373,0.201,0.172,-,CALM,No
2016/06/20,23:10,0.417,0.244,0.426,0.391,0.373,0.200,0.171,west,2.1,No
2016/06/20,23:20,0.413,0.246,0.428,0.389,0.373,0.200,0.173,west-northwest,2.8,No
2016/06/20,23:30,0.415,0.244,0.424,0.390,0.374,0.200,0.171,west,2.6,No
2016/06/20,23:40,0.412,0.245,0.428,0.388,0.371,0.201,0.172,west-northwest,2.6,No
2016/06/20,23:50,0.413,0.243,0.424,0.391,0.375,0.199,0.171,west-northwest,2.4,No
